Hourly Weather Vitebsk

Today, 20 September, Sunday

Time Temperature Precipitation Wind Pressure Humidity
00:00 +6°C° 0 mm 2 mps 749 mmHg 90%
01:00 +6°C° 0 mm 2 mps 750 mmHg 92%
02:00 +6°C° 0 mm 2 mps 750 mmHg 94%
03:00 +6°C° 0 mm 2 mps 750 mmHg 95%
04:00 +5°C° 0 mm 2 mps 750 mmHg 95%
05:00 +5°C° 0 mm 2 mps 751 mmHg 95%
06:00 +6°C° 0 mm 2 mps 751 mmHg 92%
07:00 +7°C° 0 mm 2 mps 751 mmHg 88%
08:00 +8°C° 0 mm 3 mps 752 mmHg 83%
09:00 +10°C° 0 mm 3 mps 752 mmHg 77%
10:00 +11°C° 0 mm 3 mps 752 mmHg 70%
11:00 +12°C° 0 mm 3 mps 752 mmHg 64%
12:00 +13°C° 0 mm 3 mps 752 mmHg 62%
13:00 +13°C° 0 mm 3 mps 752 mmHg 60%
14:00 +14°C° 0 mm 3 mps 752 mmHg 58%
15:00 +14°C° 0 mm 2 mps 751 mmHg 62%
16:00 +13°C° 0 mm 2 mps 751 mmHg 67%
17:00 +13°C° 0 mm 2 mps 751 mmHg 72%
18:00 +10°C° 0 mm 2 mps 751 mmHg 75%
19:00 +9°C° 0 mm 2 mps 751 mmHg 79%
20:00 +8°C° 0 mm 2 mps 751 mmHg 82%
21:00 +7°C° 0 mm 2 mps 751 mmHg 84%
22:00 +7°C° 0 mm 2 mps 751 mmHg 86%
23:00 +6°C° 0 mm 2 mps 751 mmHg 87%

Tomorrow, 21 September, Monday

Time Temperature Precipitation Wind Pressure Humidity
00:00 +6°C° 0 mm 2 mps 751 mmHg 89%
01:00 +6°C° 0 mm 2 mps 751 mmHg 90%
02:00 +5°C° 0 mm 2 mps 751 mmHg 91%
03:00 +5°C° 0 mm 2 mps 751 mmHg 92%
04:00 +5°C° 0 mm 2 mps 750 mmHg 92%
05:00 +5°C° 0 mm 2 mps 750 mmHg 93%
06:00 +5°C° 0 mm 3 mps 750 mmHg 89%
07:00 +7°C° 0 mm 3 mps 750 mmHg 84%
08:00 +9°C° 0 mm 3 mps 750 mmHg 79%
09:00 +10°C° 0 mm 3 mps 750 mmHg 77%
10:00 +12°C° 0 mm 4 mps 750 mmHg 75%
11:00 +14°C° 0 mm 4 mps 750 mmHg 72%
12:00 +15°C° 0 mm 4 mps 750 mmHg 71%
13:00 +17°C° 0 mm 4 mps 750 mmHg 70%
14:00 +17°C° 0 mm 5 mps 749 mmHg 69%
15:00 +18°C° 0 mm 4 mps 749 mmHg 72%
16:00 +17°C° 0 mm 4 mps 749 mmHg 76%
17:00 +17°C° 0 mm 3 mps 749 mmHg 79%
18:00 +14°C° 0 mm 3 mps 749 mmHg 83%
19:00 +13°C° 0 mm 3 mps 749 mmHg 87%
20:00 +12°C° 0 mm 3 mps 748 mmHg 91%
21:00 +12°C° 0 mm 3 mps 748 mmHg 91%
22:00 +11°C° 0 mm 4 mps 748 mmHg 91%
23:00 +11°C° 0 mm 4 mps 748 mmHg 91%

Day after tomorrow, 22 September, Tuesday

Time Temperature Precipitation Wind Pressure Humidity
00:00 +11°C° 0 mm 4 mps 748 mmHg 91%
01:00 +11°C° 0 mm 4 mps 748 mmHg 91%
02:00 +10°C° 0 mm 4 mps 748 mmHg 91%
03:00 +10°C° 0 mm 4 mps 747 mmHg 92%
04:00 +10°C° 0 mm 4 mps 747 mmHg 92%
05:00 +10°C° 0 mm 4 mps 747 mmHg 93%
06:00 +10°C° 0 mm 4 mps 747 mmHg 89%
07:00 +11°C° 0 mm 4 mps 747 mmHg 85%
08:00 +12°C° 0 mm 4 mps 747 mmHg 81%
09:00 +14°C° 0 mm 4 mps 747 mmHg 76%
10:00 +17°C° 0 mm 4 mps 747 mmHg 70%
11:00 +19°C° 0 mm 5 mps 747 mmHg 65%
12:00 +19°C° 0 mm 5 mps 747 mmHg 64%
13:00 +20°C° 0 mm 5 mps 747 mmHg 62%
14:00 +21°C° 0 mm 5 mps 747 mmHg 61%
15:00 +20°C° 0 mm 4 mps 747 mmHg 66%
16:00 +19°C° 0 mm 3 mps 746 mmHg 71%
17:00 +18°C° 0 mm 2 mps 746 mmHg 77%
18:00 +17°C° 0 mm 2 mps 746 mmHg 81%
19:00 +15°C° 0 mm 2 mps 746 mmHg 85%
20:00 +14°C° 0 mm 2 mps 746 mmHg 89%
21:00 +14°C° 0 mm 2 mps 746 mmHg 90%
22:00 +13°C° 0 mm 2 mps 746 mmHg 91%
23:00 +13°C° 0 mm 2 mps 746 mmHg 92%

23 September, Wednesday

Time Temperature Precipitation Wind Pressure Humidity
00:00 +13°C° 0 mm 2 mps 746 mmHg 93%
01:00 +12°C° 0 mm 2 mps 746 mmHg 93%
02:00 +12°C° 0 mm 2 mps 746 mmHg 93%
03:00 +12°C° 0 mm 2 mps 746 mmHg 93%
04:00 +12°C° 0 mm 2 mps 746 mmHg 93%
05:00 +12°C° 0 mm 2 mps 746 mmHg 94%
06:00 +13°C° 0 mm 2 mps 746 mmHg 89%
07:00 +13°C° 0 mm 3 mps 746 mmHg 85%
08:00 +14°C° 0 mm 3 mps 746 mmHg 81%
09:00 +16°C° 0 mm 3 mps 746 mmHg 75%
10:00 +18°C° 0 mm 3 mps 746 mmHg 69%
11:00 +20°C° 0 mm 4 mps 746 mmHg 63%
12:00 +20°C° 0 mm 4 mps 746 mmHg 59%
13:00 +21°C° 0 mm 4 mps 746 mmHg 55%
14:00 +22°C° 0 mm 4 mps 746 mmHg 51%
15:00 +20°C° 0 mm 4 mps 745 mmHg 56%
16:00 +19°C° 0 mm 3 mps 745 mmHg 62%
17:00 +18°C° 0 mm 3 mps 745 mmHg 67%
18:00 +17°C° 0 mm 3 mps 745 mmHg 69%
19:00 +14°C° 0 mm 3 mps 745 mmHg 70%
20:00 +13°C° 0 mm 3 mps 745 mmHg 72%
21:00 +13°C° 0 mm 3 mps 745 mmHg 70%
22:00 +12°C° 0 mm 3 mps 745 mmHg 69%
23:00 +12°C° 0 mm 3 mps 745 mmHg 68%

24 September, Thursday

Time Temperature Precipitation Wind Pressure Humidity
00:00 +11°C° 0 mm 3 mps 745 mmHg 68%
01:00 +11°C° 0 mm 3 mps 745 mmHg 68%
02:00 +10°C° 0 mm 3 mps 745 mmHg 68%
03:00 +10°C° 0 mm 3 mps 745 mmHg 67%
04:00 +10°C° 0 mm 3 mps 745 mmHg 67%
05:00 +10°C° 0 mm 3 mps 745 mmHg 66%
06:00 +10°C° 0 mm 3 mps 745 mmHg 65%
07:00 +11°C° 0 mm 4 mps 745 mmHg 64%
08:00 +12°C° 0 mm 4 mps 745 mmHg 63%
09:00 +13°C° 0 mm 4 mps 745 mmHg 60%
10:00 +15°C° 0 mm 4 mps 745 mmHg 58%
11:00 +18°C° 0 mm 4 mps 745 mmHg 56%
12:00 +18°C° 0 mm 4 mps 745 mmHg 55%
13:00 +19°C° 0 mm 4 mps 745 mmHg 55%
14:00 +20°C° 0 mm 4 mps 745 mmHg 55%
15:00 +19°C° 0 mm 4 mps 745 mmHg 60%
16:00 +18°C° 0 mm 3 mps 745 mmHg 64%
17:00 +17°C° 0 mm 3 mps 745 mmHg 69%
18:00 +16°C° 0 mm 3 mps 745 mmHg 71%
19:00 +14°C° 0 mm 3 mps 745 mmHg 73%
20:00 +13°C° 0 mm 3 mps 745 mmHg 75%
21:00 +13°C° 0 mm 3 mps 745 mmHg 75%
22:00 +12°C° 0 mm 3 mps 745 mmHg 75%
23:00 +12°C° 0 mm 3 mps 745 mmHg 74%

25 September, Friday

Time Temperature Precipitation Wind Pressure Humidity
00:00 +12°C° 0 mm 3 mps 745 mmHg 75%
01:00 +12°C° 0 mm 3 mps 745 mmHg 75%
02:00 +11°C° 0 mm 3 mps 745 mmHg 75%
03:00 +11°C° 0 mm 3 mps 745 mmHg 75%
04:00 +11°C° 0 mm 3 mps 745 mmHg 74%
05:00 +11°C° 0 mm 3 mps 745 mmHg 73%
06:00 +12°C° 0 mm 3 mps 745 mmHg 71%
07:00 +13°C° 0 mm 3 mps 745 mmHg 68%
08:00 +13°C° 0 mm 4 mps 745 mmHg 66%
09:00 +15°C° 0 mm 4 mps 745 mmHg 63%
10:00 +18°C° 0 mm 4 mps 745 mmHg 60%
11:00 +20°C° 0 mm 4 mps 745 mmHg 57%
12:00 +20°C° 0 mm 4 mps 745 mmHg 56%
13:00 +21°C° 0 mm 4 mps 745 mmHg 55%
14:00 +22°C° 0 mm 5 mps 745 mmHg 54%
15:00 +21°C° 0 mm 4 mps 745 mmHg 60%
16:00 +19°C° 0 mm 4 mps 744 mmHg 65%
17:00 +18°C° 0 mm 4 mps 744 mmHg 71%
18:00 +18°C° 0 mm 4 mps 744 mmHg 72%
19:00 +17°C° 0 mm 4 mps 744 mmHg 73%
20:00 +15°C° 0 mm 4 mps 743 mmHg 75%
21:00 +15°C° 0 mm 4 mps 743 mmHg 73%
22:00 +14°C° 0 mm 4 mps 743 mmHg 72%
23:00 +14°C° 0 mm 4 mps 743 mmHg 71%
Show more